Overview Statistics Trail Chart Weather Telemetry Raw packets
 

This is the latest recevied weather packets stored in our database for station/object EA1HEH-13. If no packets are shown the sender has not sent any weather packets the latest 10 day(s).

<< 48 49 50 51 52 53 54 >>
Time Temp. Humidity Pressure Rain* Wind** Luminosity Snow
1787861678 19.44° C 32% 936.9 hPa - - - -
1787861078 19.44° C 32% 936.7 hPa - - - -
1787860478 19.44° C 32% 936.5 hPa - - - -
1787859878 19.44° C 33% 936.2 hPa - - - -
1787859278 19.44° C 34% 936 hPa - - - -
1787858678 19.44° C 34% 935.7 hPa - - - -
1787858078 19.44° C 36% 935.6 hPa - - - -
1787857478 19.44° C 36% 935.3 hPa - - - -
1787856878 20° C 37% 935 hPa - - - -
1787856278 20° C 38% 934.9 hPa - - - -
1787855678 20° C 37% 934.7 hPa - - - -
1787855078 19.44° C 37% 934.7 hPa - - - -
1787854478 19.44° C 35% 934.5 hPa - - - -
1787853878 20° C 38% 934.3 hPa - - - -
1787853278 20° C 38% 934 hPa - - - -
1787852678 20.56° C 40% 934.1 hPa - - - -
1787852078 20.56° C 39% 934 hPa - - - -
1787851478 20.56° C 41% 934 hPa - - - -
1787850878 20.56° C 41% 933.9 hPa - - - -
1787850278 20.56° C 42% 934 hPa - - - -
1787849678 20.56° C 43% 933.9 hPa - - - -
1787849078 20° C 43% 933.8 hPa - - - -
1787848479 19.44° C 43% 933.9 hPa - - - -
1787847878 19.44° C 43% 934.2 hPa - - - -
1787847278 20° C 43% 933.9 hPa - - - -

* Rain since midnight (hover to see other rain measurements)
** Current wind speed in m/s (hover to see current wind gust speed)